Location: Chèvreville
(49.1099°N, 2.8495°E)
Time: 05:15:40
(UTC+00:00)

PCSat - Visible Passes

Search period start: 05 December 2023 00:00
Search period end: 15 December 2023 00:00
Orbit: 784 x 792 km, 67.1° (Epoch: 04 December)

Date Brightness Start Highest point End Pass type
(mag) Time Alt. Az. Time Alt. Az. Time Alt. Az.
05 Dec 10.3 04:03:39 51° E 04:03:39 51° E 04:08:03 10° NE visible
05 Dec 10.3 05:44:23 25° WNW 05:46:24 32° NW 05:51:17 10° NNE visible
06 Dec 11.4 03:33:44 27° ENE 03:33:44 27° ENE 03:36:27 10° NE visible
06 Dec 10.0 05:14:27 40° NW 05:14:45 40° NW 05:19:53 10° NNE visible
07 Dec 12.2 03:03:39 15° ENE 03:03:39 15° ENE 03:04:45 10° NE visible
07 Dec 10.2 04:44:22 42° N 04:44:22 42° N 04:48:27 10° NNE visible
07 Dec 11.2 06:25:04 12° WNW 06:27:48 17° NNW 06:31:17 10° NNE visible
08 Dec 10.9 04:14:08 31° NNE 04:14:08 31° NNE 04:16:59 10° NNE visible
08 Dec 11.0 05:54:50 18° NW 05:55:59 20° NNW 05:59:53 10° NNE visible
09 Dec 11.6 03:43:50 20° NNE 03:43:50 20° NNE 03:45:31 10° NE visible
09 Dec 10.9 05:24:32 23° NNW 05:24:32 23° NNW 05:28:29 10° NNE visible
10 Dec 12.2 03:13:28 13° NE 03:13:28 13° NE 03:14:00 10° NE visible
10 Dec 11.0 04:54:09 23° N 04:54:09 23° N 04:57:04 10° NNE visible
10 Dec 11.5 06:35:28 10° NW 06:37:45 12° N 06:40:02 10° NNE visible
11 Dec 11.4 04:23:42 20° N 04:23:42 20° N 04:25:40 10° NNE visible
11 Dec 11.4 06:04:23 12° NNW 06:05:52 14° NNW 06:08:32 10° NNE visible
12 Dec 11.9 03:53:13 15° NNE 03:53:13 15° NNE 03:54:15 10° NNE visible
12 Dec 11.4 05:33:54 15° NNW 05:33:59 15° NNW 05:37:05 10° NNE visible
13 Dec 12.3 03:22:41 11° NNE 03:22:41 11° NNE 03:22:48 10° NNE visible
13 Dec 11.5 05:03:22 16° N 05:03:22 16° N 05:05:39 10° NNE visible
13 Dec 11.6 06:46:04 10° NNW 06:47:51 11° N 06:49:38 10° NNE visible
14 Dec 11.7 04:32:48 15° N 04:32:48 15° N 04:34:15 10° NNE visible
14 Dec 11.6 06:14:08 10° NNW 06:15:55 11° N 06:17:42 10° NNE visible
